Waarnemingen

Advertentie
Mijn weer
Llanes, Spanje (8016): temperatuur & dauwpunt: 16.09.2020 13:00:00 - 22.09.2020 13:00:00 (CEST)Llanes, Spanje (8016): windsnelheid & windstoten: 16.09.2020 13:00:00 - 22.09.2020 13:00:00 (CEST)Llanes, Spanje (8016): windrichting: 16.09.2020 13:00:00 - 22.09.2020 13:00:00 (CEST)Llanes, Spanje (8016): luchtdruk: 16.09.2020 13:00:00 - 22.09.2020 13:00:00 (CEST)Llanes, Spanje (8016): zicht: 16.09.2020 13:00:00 - 22.09.2020 13:00:00 (CEST)Llanes, Spanje (8016): Zonneschijnduur: 16.09.2020 13:00:00 - 22.09.2020 13:00:00 (CEST)Llanes, Spanje (8016): neerslag: 16.09.2020 13:00:00 - 22.09.2020 13:00:00 (CEST)
Datum & Tijd tt [°C] td [°C] ff [km/u] ff [kn] fx [km/u] fx [kn] dd ppp [hPa] vv [km] sd [min] rr [mm]
22.09.2020 13:00:00 - - - - - - - - - - -
22.09.2020 12:00:00 20,5 15,1 10 5 13 7 WNW 1015,8 20 60 0,0
22.09.2020 11:00:00 21,2 16,1 4 2 10 6 W 1015,8 20 60 0,0
22.09.2020 10:00:00 - - - - - - - - - - -
22.09.2020 09:00:00 16,4 14,0 5 3 12 7 ZZW 1015,7 20 0 0,0
22.09.2020 08:00:00 15,6 13,3 10 6 14 7 ZW 1015,6 20 0 -
22.09.2020 07:00:00 15,5 13,0 9 5 11 6 ZW 1015,5 20 0 0,0
22.09.2020 06:00:00 16,5 13,9 7 4 12 6 ZZW 1015,9 20 0 0,0
22.09.2020 05:00:00 - - - - - - - - - - -
22.09.2020 04:00:00 - - - - - - - - - - -
22.09.2020 03:00:00 16,7 14,1 2 1 11 6 Z 1017,2 20 0 0,0
22.09.2020 02:00:00 17,2 14,3 9 5 11 6 ZZW 1017,5 20 0 -
22.09.2020 01:00:00 17,4 14,9 9 5 12 7 ZW 1017,9 20 0 0,0
22.09.2020 00:00:00 17,6 14,9 9 5 11 6 ZW 1018,1 20 0 0,0
21.09.2020 23:00:00 18,3 15,3 3 2 9 5 ZZO 1018,5 20 0 0,0
21.09.2020 22:00:00 18,7 15,5 5 3 8 4 ZZW 1018,6 20 0 0,0
21.09.2020 21:00:00 18,8 15,4 5 3 8 4 ZZW 1018,5 20 0 0,0
21.09.2020 20:00:00 19,6 15,9 3 1 13 7 WZW 1018,3 20 0 -
21.09.2020 19:00:00 20,2 15,8 11 6 19 11 WNW 1018,2 20 37 0,0
21.09.2020 18:00:00 21,1 16,0 15 8 20 11 WNW 1018,3 20 31 0,0
21.09.2020 17:00:00 21,4 16,1 14 8 18 10 WNW 1018,4 20 59 0,0
21.09.2020 16:00:00 - - - - - - - - - - -
21.09.2020 15:00:00 20,4 16,2 12 7 15 8 WNW 1018,9 20 7 0,0
21.09.2020 14:00:00 20,6 16,0 8 4 16 8 WNW 1019,1 20 36 -
21.09.2020 13:00:00 - - - - - - - - - - -
21.09.2020 12:00:00 20,8 14,7 11 6 14 7 WNW 1019,1 20 52 0,0
21.09.2020 11:00:00 - - - - - - - - - - -
21.09.2020 10:00:00 19,7 16,1 3 1 8 4 W 1018,8 20 49 0,0
21.09.2020 09:00:00 17,6 15,1 5 3 11 6 ZW 1018,4 20 0 0,0
21.09.2020 08:00:00 17,4 14,7 6 3 11 6 ZZW 1018,1 20 0 -
21.09.2020 07:00:00 17,1 14,3 8 4 10 5 ZZW 1017,8 20 0 0,0
21.09.2020 06:00:00 16,8 14,2 9 5 13 7 ZZW 1017,8 20 0 0,0
21.09.2020 05:00:00 16,5 13,8 7 4 12 7 ZW 1017,6 20 0 0,0
21.09.2020 04:00:00 16,8 14,0 8 4 11 6 ZW 1017,9 20 0 0,0
21.09.2020 03:00:00 17,1 14,3 8 5 11 6 ZW 1018,1 20 0 0,0
21.09.2020 02:00:00 17,8 14,9 6 3 10 5 ZW 1018,3 20 0 -
21.09.2020 01:00:00 18,2 15,3 5 3 11 6 ZW 1018,5 20 0 0,0
21.09.2020 00:00:00 - - - - - - - - - - -
20.09.2020 23:00:00 - - - - - - - - - - -
20.09.2020 22:00:00 18,7 15,8 7 4 10 5 ZZW 1018,2 20 0 0,0
20.09.2020 21:00:00 19,9 16,1 5 3 9 5 ZZW 1017,7 20 0 0,0
20.09.2020 20:00:00 20,7 16,3 5 3 11 6 W 1017,2 20 0 -
20.09.2020 19:00:00 21,2 16,8 5 3 14 8 W 1017,0 20 11 0,0
20.09.2020 18:00:00 21,4 16,6 11 6 14 8 WNW 1016,8 20 31 0,0
20.09.2020 17:00:00 - - - - - - - - - - -
20.09.2020 16:00:00 - - - - - - - - - - -
20.09.2020 15:00:00 21,8 16,6 6 3 11 6 NW 1016,6 20 38 0,0
20.09.2020 14:00:00 22,3 16,3 8 4 18 10 NW 1016,7 20 60 -
20.09.2020 13:00:00 21,7 15,1 13 7 19 10 WNW 1016,7 20 60 0,0
20.09.2020 12:00:00 - - - - - - - - - - -
20.09.2020 11:00:00 - - - - - - - - - - -
20.09.2020 10:00:00 - - - - - - - - - - -
20.09.2020 09:00:00 16,7 13,8 8 4 13 7 ZW 1015,7 20 0 0,0
20.09.2020 08:00:00 16,4 13,5 11 6 15 8 ZZW 1015,4 20 0 -
20.09.2020 07:00:00 16,4 13,5 4 2 9 5 ZW 1015,3 20 0 0,0
20.09.2020 06:00:00 16,4 13,5 2 1 9 5 Z 1015,3 20 0 0,0
20.09.2020 05:00:00 - - - - - - - - - - -
20.09.2020 04:00:00 - - - - - - - - - - -
20.09.2020 03:00:00 17,8 13,9 2 1 8 5 OZO 1015,3 15 0 0,0
20.09.2020 02:00:00 18,5 14,1 6 3 8 4 WZW 1015,1 20 0 -
20.09.2020 01:00:00 18,8 14,0 5 3 9 5 ZW 1015,2 20 0 0,0
20.09.2020 00:00:00 - - - - - - - - - - -
19.09.2020 23:00:00 - - - - - - - - - - -
19.09.2020 22:00:00 19,2 13,9 7 4 24 13 ZW 1015,0 20 0 0,0
19.09.2020 21:00:00 19,6 14,8 9 5 18 10 W 1014,5 20 0 0,0
19.09.2020 20:00:00 20,3 15,3 11 6 16 9 WNW 1013,8 20 11 -
19.09.2020 19:00:00 21,1 16,0 5 3 23 12 ZW 1012,9 20 37 0,0
19.09.2020 18:00:00 22,4 16,2 12 6 28 15 WNW 1011,8 20 60 0,0
19.09.2020 17:00:00 22,9 15,0 16 8 24 13 NW 1011,4 20 36 0,0
19.09.2020 16:00:00 - - - - - - - - - - -
19.09.2020 15:00:00 20,2 16,5 9 5 23 12 W 1011,9 20 0 0,2
19.09.2020 14:00:00 18,3 16,1 7 4 19 11 ZZW 1012,5 20 0 -
19.09.2020 13:00:00 - - - - - - - - - - -
19.09.2020 12:00:00 19,0 16,0 5 3 13 7 W 1011,8 20 0 0,0
19.09.2020 11:00:00 18,6 15,9 2 1 7 4 ZZW 1010,6 19 0 0,0
19.09.2020 10:00:00 18,3 15,5 4 2 14 7 ZZO 1010,1 10 0 0,0
19.09.2020 09:00:00 18,1 15,7 9 5 16 9 NW 1009,4 17 0 0,0
19.09.2020 08:00:00 18,1 15,7 5 3 10 5 WZW 1009,0 14 0 -
19.09.2020 07:00:00 18,5 15,7 1 1 8 4 OZO 1009,7 9 0 0,6
19.09.2020 06:00:00 18,7 15,8 5 3 12 7 ZZW 1009,6 20 0 0,0
19.09.2020 05:00:00 - - - - - - - - - - -
19.09.2020 04:00:00 - - - - - - - - - - -
19.09.2020 03:00:00 19,1 15,5 6 3 19 11 Z 1008,8 8 0 0,0
19.09.2020 02:00:00 18,9 15,5 10 5 19 10 N 1008,8 19 0 -
19.09.2020 01:00:00 19,2 15,3 3 2 11 6 Z 1009,8 20 0 0,0
19.09.2020 00:00:00 18,9 14,3 9 5 14 8 ZW 1010,0 20 0 0,0
18.09.2020 23:00:00 - - - - - - - - - - -
18.09.2020 22:00:00 - - - - - - - - - - -
18.09.2020 21:00:00 20,5 15,1 1 1 8 4 ZW 1009,9 20 0 0,0
18.09.2020 20:00:00 21,3 15,6 3 2 8 5 ZO 1009,6 20 22 -
18.09.2020 19:00:00 - - - - - - - - - - -
18.09.2020 18:00:00 24,0 17,2 12 6 13 7 ONO 1009,6 20 60 0,0
18.09.2020 17:00:00 23,7 17,7 7 4 17 9 ONO 1009,7 20 55 0,0
18.09.2020 16:00:00 24,3 18,0 11 6 15 8 O 1009,6 20 54 0,0
18.09.2020 15:00:00 24,3 18,7 5 3 9 5 O 1009,5 17 60 0,0
18.09.2020 14:00:00 23,7 18,3 3 1 8 5 NO 1009,8 14 58 -
18.09.2020 13:00:00 - - - - - - - - - - -
18.09.2020 12:00:00 20,8 17,6 6 3 11 6 O 1009,5 14 0 0,0
18.09.2020 11:00:00 20,2 17,2 3 2 7 4 ONO 1008,8 14 18 0,2
18.09.2020 10:00:00 19,2 17,0 3 2 17 9 WNW 1008,6 8 0 1,2
18.09.2020 09:00:00 19,0 16,6 8 5 20 11 W 1008,6 13 0 0,4
18.09.2020 08:00:00 18,9 16,3 3 2 14 7 ZZW 1008,3 14 0 -
18.09.2020 07:00:00 18,6 16,2 2 1 8 5 WZW 1008,5 15 0 0,0
18.09.2020 06:00:00 18,5 16,1 2 1 10 5 ZO 1007,6 8 0 0,0
18.09.2020 05:00:00 18,5 16,0 4 2 19 10 O 1008,2 2,6 0 0,2
18.09.2020 04:00:00 - - - - - - - - - - -
18.09.2020 03:00:00 19,6 16,5 14 8 27 14 W 1009,5 10 0 0,6
18.09.2020 02:00:00 20,1 16,6 18 10 42 23 W 1008,6 9 0 -
18.09.2020 01:00:00 - - - - - - - - - - -
18.09.2020 00:00:00 20,8 18,0 4 2 11 6 ZW 1007,1 9 0 0,0
17.09.2020 23:00:00 21,1 18,1 3 2 9 5 ZO 1007,8 4,8 0 0,0
17.09.2020 22:00:00 - - - - - - - - - - -
17.09.2020 21:00:00 22,0 18,4 3 2 10 5 NNO 1008,0 7 0 0,0
17.09.2020 20:00:00 22,0 17,8 4 2 8 4 ZZO 1008,1 9 6 -
17.09.2020 19:00:00 - - - - - - - - - - -
17.09.2020 18:00:00 - - - - - - - - - - -
17.09.2020 17:00:00 24,1 18,3 4 2 12 6 NNW 1009,5 8 17 0,0
17.09.2020 16:00:00 - - - - - - - - - - -
17.09.2020 15:00:00 23,7 18,2 3 2 14 8 NNW 1010,4 10 19 0,0
17.09.2020 14:00:00 25,3 19,6 3 1 8 4 N 1010,7 12 60 -
17.09.2020 13:00:00 22,9 19,8 6 4 10 5 NNW 1011,4 3,4 32 0,0
17.09.2020 12:00:00 21,9 19,3 3 2 5 3 NNW 1011,5 5 14 0,0
17.09.2020 11:00:00 20,9 18,8 3 2 5 3 NNO 1012,2 3,1 0 0,0
17.09.2020 10:00:00 20,9 18,8 4 2 8 4 ZZO 1012,8 4,2 0 0,0
17.09.2020 09:00:00 20,4 18,5 3 1 11 6 WZW 1012,7 7 0 0,0
17.09.2020 08:00:00 20,4 18,5 3 2 6 4 W 1013,2 6 0 -
17.09.2020 07:00:00 20,6 18,5 4 2 11 6 W 1013,2 6 0 0,0
17.09.2020 06:00:00 20,6 18,5 7 4 14 8 Z 1013,9 5 0 0,4
17.09.2020 05:00:00 20,7 18,6 5 3 9 5 OZO 1014,6 1,2 0 1,4
17.09.2020 04:00:00 20,8 18,8 4 2 8 4 OZO 1014,8 4,7 0 0,0
17.09.2020 03:00:00 20,6 18,4 3 1 6 4 O 1015,8 5 0 0,0
17.09.2020 02:00:00 20,4 18,2 3 2 10 5 OZO 1016,1 5 0 -
17.09.2020 01:00:00 20,6 18,0 0 0 8 4 N 1017,0 5 0 0,0
17.09.2020 00:00:00 21,6 18,8 5 3 14 8 O 1017,2 8 0 0,0
16.09.2020 23:00:00 21,3 18,7 5 3 10 5 O 1017,3 6 0 0,0
16.09.2020 22:00:00 21,4 18,6 5 3 6 3 O 1017,2 7 0 0,0
16.09.2020 21:00:00 21,7 18,7 3 1 5 3 ONO 1016,9 8 0 0,0
16.09.2020 20:00:00 22,2 18,8 3 2 10 5 O 1017,0 12 0 -
16.09.2020 19:00:00 22,6 18,8 7 4 10 5 O 1016,7 8 0 0,0
16.09.2020 18:00:00 22,9 18,8 8 4 10 6 O 1016,8 10 0 0,0
16.09.2020 17:00:00 23,8 19,1 8 4 12 6 O 1017,1 8 2 0,0
16.09.2020 16:00:00 23,6 18,7 8 5 13 7 O 1017,7 8 33 0,0
16.09.2020 15:00:00 24,0 18,4 10 5 15 8 O 1018,2 8 55 0,0
16.09.2020 14:00:00 25,3 19,0 11 6 14 7 O 1018,5 8 60 -
16.09.2020 13:00:00 25,0 19,1 9 5 11 6 ONO 1018,7 10 60 0,0

tt = temperatuur
td = dauwpunt
ff = windsnelheid
fx = windstoten
dd = windrichting
ppp = luchtdruk
vv = zicht
sd = Zonneschijnduur
rr = neerslag

Weerstations in de omgeving